Regional Weather Roundup
Issued by NWS

Home | Current Version | Previous Version | Graphics & Text | Print | Product List | Glossary On
Versions: 1 2 3 4 5 6 7 8 9 10 11 12 13 14 15 16 17 18 19 20 21 22 23 24 25 26 27 28 29 30 31 32 33 34 35 36 37 38 39 40 41 42 43 44 45 46 47 48 49 50
000
ASUS43 KIND 121809
RWRIN

WEATHER ROUNDUP FOR INDIANA
NATIONAL WEATHER SERVICE INDIANAPOLIS IN
100 PM EST FRI FEB 12 2016

NOTE: "FAIR" INDICATES FEW OR NO CLOUDS BELOW 12,000 FEET WITH NO
SIGNIFICANT WEATHER AND/OR OBSTRUCTIONS TO VISIBILITY.

* - STATION DOES NOT REPORT WEATHER SUCH AS PRECIPITATION OR FOG.

+ - STATION NOT QUALITY CONTROLLED BY THE NATIONAL WEATHER SERVICE.
    USE DATA WITH CAUTION...ESPECIALLY DEWPOINT AND RELATIVE
    HUMIDITY OBSERVATIONS.

INZ001>003-010>013-019-020-121900-
NORTHWEST INDIANA

CITY           SKY/WX    TMP DP  RH WIND       PRES   REMARKS
GARY /AIRPORT/ PTSUNNY   25   9  50 NW17G30   30.15F WCI  11
KNOX *+        CLOUDY    23  16  74 NW17      30.11F WCI   9
LA PORTE +     FLURRIES  23  15  72 NW10G22   30.11F WCI  12
6HR MIN TEMP:  19; 6HR MAX TEMP:  23;

MICHIGAN CITY+ CLOUDY    21  12  68 NW14G22   30.13S WCI   8
MONTICELLO +   FLURRIES  26  17  69 W13       30.13F WCI  14
6HR MIN TEMP:  19; 6HR MAX TEMP:  26;

RENSSELAER +   LGT SNOW  27  18  69 W18G25    30.14S WCI  13
VALPARAISO     SNOW      22  15  75 W16       30.12F WCI   8
6HR MIN TEMP:  19; 6HR MAX TEMP:  22; 6HR PCP: TRACE;


$$

LMZ046-743>745-121900-
SOUTHERN LAKE MICHIGAN

STATION/POSITION TIME  TEMP    WIND        PRES    WAVE
                       AIR SEA DIR/SP/G            HT
                 (UTC) (F)     (DEG/KT/KT) (MB)    (FT)
BURNS HARBOR     1700   21     290/ 16/ 21 1020.7S
MICHIGAN CITY    1700   21     270/ 22/ 26   N/A

$$

INZ004-005-014>016-021>024-121900-
NORTH CENTRAL INDIANA

CITY           SKY/WX    TMP DP  RH WIND       PRES   REMARKS
ELKHART        LGT SNOW  21  18  86 W12       30.07F WCI   9
GOSHEN         LGT SNOW  21  14  74 W18       30.06F WCI   6
6HR MIN TEMP:  18; 6HR MAX TEMP:  21; 6HR PCP: TRACE;

LOGANSPORT +   SNOW      25  16  68 W15       30.12F VSB 1/2 WCI  12
PERU/GRISSOM   LGT SNOW  23  18  78 W17       30.08F WCI  10
6HR MIN TEMP:  19; 6HR MAX TEMP:  24; 6HR PCP: TRACE;

ROCHESTER +    LGT SNOW  27  14  59 W14G26    30.10F WCI  15
SOUTH BEND     SNOW      20  16  84 NW20      30.09S VSB 1/2 WCI   4
6HR MIN TEMP:  15; 6HR MAX TEMP:  20; 6HR PCP: TRACE;

WARSAW +       LGT SNOW  23  16  74 W16       30.07F WCI  10

$$

INZ006>009-017-018-025>027-121900-
NORTHEAST INDIANA

CITY           SKY/WX    TMP DP  RH WIND       PRES   REMARKS
ANGOLA *+      CLOUDY    21  14  73 W15       30.01F WCI   8
AUBURN +       CLOUDY    23  12  63 W13G24    30.05F WCI  11
FORT WAYNE     CLOUDY    23  14  68 W20       30.07F WCI   8
6HR MIN TEMP:  17; 6HR MAX TEMP:  24;

HUNTINGTON +   CLOUDY    23  11  61 W13G21    30.08F WCI  11
6HR MIN TEMP:  17; 6HR MAX TEMP:  24;


$$

INZ028-029-035-036-043>045-051>053-121900-
WEST CENTRAL INDIANA

CITY           SKY/WX    TMP DP  RH WIND       PRES   REMARKS
GREENCASTLE +  FLURRIES  25  12  58 W10       30.17F WCI  15
LAFAYETTE      LGT SNOW  24  18  77 W14G23    30.15F WCI  12
6HR MIN TEMP:  19; 6HR MAX TEMP:  24; 6HR PCP: TRACE;

TERRE HAUTE    CLOUDY    26  18  71 NW15      30.21S WCI  14
6HR MIN TEMP:  21; 6HR MAX TEMP:  26;


$$

INZ030>032-037>040-046>048-054>057-064-065-121900-
CENTRAL INDIANA

CITY           SKY/WX    TMP DP  RH WIND       PRES   REMARKS
ANDERSON       CLOUDY    25  14  63 W12G23    30.12F WCI  14
COLUMBUS       CLOUDY    28  18  64 W9        30.16F WCI  20
FISHERS *+     CLOUDY    25  18  74 W14       30.13  WCI  13
FRANKFORT +    FLURRIES  25  13  58 W16       30.14F WCI  13
6HR MIN TEMP:  20; 6HR MAX TEMP:  26;

GREENWOOD *+   CLOUDY    27  18  69 W13G18    30.15F WCI  16
INDIANAPOLIS   FLURRIES  26  14  60 W17       30.14F WCI  13
6HR MIN TEMP:  20; 6HR MAX TEMP:  26; 6HR PCP: TRACE;

-EAGLE CREEK   FLURRIES  24  16  71 W10       30.14F WCI  14
6HR MIN TEMP:  20; 6HR MAX TEMP:  25; 6HR PCP: TRACE;

KOKOMO *+      CLOUDY    23  16  74 W20       30.11F WCI   8
6HR MIN TEMP:  19; 6HR MAX TEMP:  23;

MARION +       CLOUDY    23  11  58 W18       30.10F WCI   9
MT COMFORT *+  CLOUDY    27  14  59 W17       30.13F WCI  14
SHELBYVILLE    CLOUDY    27  14  58 W14       30.13F WCI  16
6HR MIN TEMP:  20; 6HR MAX TEMP:  27;

ZIONSVILLE +   FLURRIES  24  16  73 W12G21    30.13F WCI  13
6HR MIN TEMP:  18; 6HR MAX TEMP:  24;


$$

INZ033-034-041-042-049-050-058-059-121900-
EAST CENTRAL INDIANA

CITY           SKY/WX    TMP DP  RH WIND       PRES   REMARKS
MUNCIE         CLOUDY    25  12  58 W15G21    30.10F WCI  13
6HR MIN TEMP:  19; 6HR MAX TEMP:  25;


$$

INZ060-061-067>069-081>083-085>088-121900-
SOUTHWEST INDIANA

CITY           SKY/WX    TMP DP  RH WIND       PRES   REMARKS
EVANSVILLE     CLOUDY    31  23  72 W5        30.24F WCI  26
6HR MIN TEMP:  26; 6HR MAX TEMP:  31; 6HR PCP:  0.04;

HUNTINGBURG *+ CLOUDY    30  19  64 W10       30.21F WCI  21
6HR MIN TEMP:  27; 6HR MAX TEMP:  30;

WASHINGTON +   CLOUDY    28  21  74 W13       30.21F WCI  17
6HR MIN TEMP:  24; 6HR MAX TEMP:  28;


$$

INZ062-063-066-070>080-084-089>092-121900-
SOUTH CENTRAL AND SOUTHEAST INDIANA

CITY           SKY/WX    TMP DP  RH WIND       PRES   REMARKS
BEDFORD +      CLOUDY    28  21  74 W8G21     30.17  WCI  20
BLOOMINGTON    CLOUDY    27  17  66 W8G17     30.16F WCI  19
6HR MIN TEMP:  21; 6HR MAX TEMP:  27;

MADISON *+     CLOUDY    30  19  64 W9        30.16F WCI  22
NORTH VERNON + CLOUDY    28  16  59 CALM      30.15F
SEYMOUR +      CLOUDY    32  18  55 W14       30.16F WCI  22

$$




USA.gov is the U.S. government's official web portal to all federal, state and local government web resources and services.